[[{"header":{"parameterUnit":"m.s-1","parameterCategory":1,"la1":30.2991,"la2":30.254,"lo1":-89.0895,"lo2":-89.0444,"dy":0.0017,"dx":0.0017,"nx":28,"ny":28,"refTime":"2025-03-27T21:00:00:Z","depth":0,"parameterNumber":2,"parameterNumberName":"U-component_of_WINDS"},"data":[0,0,0,0,0,0,0,0,0,0,0,0,0,0,0,0,0,0,0,0,0,0,0,0,0,0,0,0,0,0,0,0,0,0,0,0,0,0,0,0,0,0,0,0,0,0,0,0,0,0,0,0,0,0,0,0,0,0,-4.2458,-4.2458,0,-4.2494,-4.2495,-4.2495,-4.2415,-4.2413,-4.241,-4.2408,-4.2446,-4.2449,-4.2453,0,0,0,0,0,0,0,0,0,0,0,0,0,-4.2323,-4.2326,-4.2458,-4.2458,-4.2459,-4.2494,-4.2495,-4.2495,-4.2416,-4.2412,-4.2409,-4.2406,-4.2445,-4.2449,-4.2453,0,0,0,0,0,0,0,0,0,0,0,0,0,-4.2373,-4.2327,-4.2458,-4.2423,-4.2421,-4.2494,-4.2495,-4.2495,-4.2416,-4.2412,-4.2408,-4.2405,-4.2444,-4.2449,-4.2454,-4.2563,0,0,-4.2469,-4.2472,0,0,0,0,0,0,0,0,-4.237,-4.2378,-4.2428,-4.2426,-4.2423,-4.2446,-4.2461,-4.2518,-4.2417,-4.2418,-4.2407,-4.2403,-4.2449,-4.2454,-4.2469,-4.2564,-4.2566,-4.247,-4.2473,-4.2475,-4.2477,0,0,0,0,0,0,0,-4.2367,-4.2376,-4.2472,-4.2429,-4.2426,-4.2407,-4.241,-4.2472,-4.2455,-4.2418,-4.2412,-4.2417,-4.2447,-4.2464,-4.2469,-4.2567,-4.247,-4.2474,-4.2477,-4.2479,-4.2756,-4.276,0,0,0,0,0,0,-4.2367,-4.2374,-4.2471,-4.2473,-4.2387,-4.2413,-4.2416,-4.2443,-4.2454,-4.2452,-4.242,-4.2413,-4.2457,-4.2463,-4.247,-4.2599,-4.2475,-4.248,-4.2483,-4.2752,-4.2757,-4.2761,0,0,0,0,0,0,-4.2365,-4.2377,-4.247,-4.2422,-4.2432,-4.2419,-4.245,-4.2445,-4.2462,-4.2456,-4.2453,-4.2441,-4.2455,-4.2463,-4.2541,-4.26,-4.2482,-4.2487,-4.2747,-4.2753,-4.2759,-4.2858,0,0,0,0,0,0,-4.2361,-4.2376,-4.2417,-4.2424,-4.2435,-4.2538,-4.2454,-4.2449,-4.2471,-4.2462,-4.2474,-4.2473,-4.2452,-4.2533,-4.2546,-4.2605,-4.2491,-4.2741,-4.275,-4.2757,-4.2849,-4.2867,-4.2882,0,0,0,0,0,-4.2357,-4.2443,-4.2419,-4.2431,-4.2485,-4.2542,-4.2549,-4.2523,-4.2476,-4.2517,-4.2514,-4.2472,-4.2592,-4.2542,-4.2555,-4.2616,-4.2737,-4.2747,-4.2756,-4.2842,-4.2863,-4.2882,0,0,0,0,0,0,-4.2442,-4.2443,-4.2416,-4.2507,-4.2525,-4.2528,-4.2579,-4.2546,-4.2578,-4.2568,-4.2536,-4.254,-4.2624,-4.2628,-4.2573,-4.2724,-4.2657,-4.2669,-4.2717,-4.2738,-4.2754,-4.275,-4.2495,0,0,0,0,0,-4.2472,-4.2518,-4.2516,-4.2596,-4.2607,-4.2592,-4.2615,-4.2595,-4.2612,-4.2619,-4.2621,-4.2641,-4.2683,-4.2711,-4.2749,-4.2851,-4.2853,-4.29,-4.2916,-4.2929,-4.294,-4.2996,-4.3017,-4.2793,-4.2793,-4.2793,0,0,-4.2533,-4.2539,-4.257,-4.2614,-4.2625,-4.2674,-4.2598,-4.2653,-4.2689,-4.2628,-4.27,-4.2704,-4.2723,-4.2814,-4.2854,-4.282,-4.3003,-4.2942,-4.2952,-4.2956,-4.3008,-4.3029,-4.3048,-4.2799,-4.2798,-4.2797,0,0,-4.2669,-4.2678,-4.2747,-4.2761,-4.2779,-4.2769,-4.2786,-4.2795,-4.2795,-4.2868,-4.2823,-4.2867,-4.294,-4.2956,-4.2974,-4.3121,-4.3084,-4.3135,-4.3219,-4.3274,-4.3291,-4.3307,-4.3359,-4.3378,-4.3146,-4.3146,-4.3146,0,-4.2742,-4.2813,-4.2786,-4.2844,-4.2865,-4.2813,-4.2883,-4.2898,-4.2929,-4.2945,-4.2907,-4.2999,-4.3009,-4.3103,-4.3139,-4.3155,-4.3174,-4.3131,-4.3291,-4.3306,-4.332,-4.337,-4.339,-4.3152,-4.3151,-4.3151,-4.315,0,-4.2903,-4.2953,-4.3007,-4.3038,-4.3066,-4.3129,-4.3113,-4.3145,-4.3123,-4.3118,-4.3194,-4.3205,-4.3245,-4.3266,-4.3245,-4.3359,-4.3337,-4.3296,-4.3227,-4.3348,-4.3394,-4.3413,-4.316,-4.3158,-4.3157,-4.3155,0,0,-4.309,-4.3108,-4.3128,-4.3142,-4.3161,-4.32,-4.3263,-4.3303,-4.3331,-4.3355,-4.3407,-4.3472,-4.3435,-4.3455,-4.3436,-4.3485,-4.3601,-4.3437,-4.3437,-4.3467,-4.3728,-4.3757,-4.3779,-4.3578,-4.3582,-4.3585,-4.3726,0,-4.3224,-4.333,-4.331,-4.3414,-4.3461,-4.3415,-4.347,-4.3489,-4.3487,-4.3528,-4.3526,-4.3572,-4.3519,-4.3532,-4.3578,-4.3577,-4.3653,-4.3567,-4.3627,-4.3629,-4.3621,-4.3803,-4.3834,-4.3967,-4.3744,-4.3747,-4.3749,0,-4.3393,-4.3424,-4.3534,-4.3548,-4.3567,-4.3616,-4.3652,-4.3692,-4.3713,-4.3708,-4.3734,-4.3706,-4.3771,-4.3704,-4.3793,-4.3735,-4.3759,-4.3763,-4.3767,-4.377,-4.3694,-4.381,-4.4008,-4.4027,-4.3777,-4.3775,-4.3773,0,-4.3517,-4.3587,-4.3662,-4.3676,-4.3695,-4.3731,-4.374,-4.3758,-4.3784,-4.3816,-4.3833,-4.3873,-4.3894,-4.3927,-4.3912,-4.3864,-4.4004,-4.3935,-4.4002,-4.4002,-4.403,-4.4029,-4.4234,-4.405,-4.4049,-4.4049,-4.4049,0,-4.3667,-4.3736,-4.3718,-4.3764,-4.3841,-4.3818,-4.3895,-4.3899,-4.3916,-4.3963,-4.3927,-4.3972,-4.3951,-4.3995,-4.3984,-4.406,-4.407,-4.4069,-4.4065,-4.4071,-4.4071,-4.4084,-4.4074,-4.4054,-4.4053,-4.4052,-4.4051,0,-4.3817,-4.3808,-4.3887,-4.3899,-4.3904,-4.396,-4.3971,-4.4015,-4.4012,-4.4072,-4.4085,-4.4081,-4.4131,-4.4121,-4.4176,-4.4169,-4.4264,-4.4249,-4.4256,-4.4252,-4.4319,-4.4312,-4.4538,-4.4566,-4.4366,-4.4368,-4.4369,0,-4.3912,-4.3964,-4.3983,-4.4012,-4.4024,-4.4072,-4.4098,-4.408,-4.411,-4.414,-4.4181,-4.4229,-4.4265,-4.4349,-4.4351,-4.4394,-4.4379,-4.4456,-4.4385,-4.439,-4.4379,-4.4375,-4.438,-4.4468,-4.4471,-4.4473,-4.4474,0,-4.4082,-4.4076,-4.4115,-4.4156,-4.4189,-4.4219,-4.4246,-4.4272,-4.4256,-4.4292,-4.4344,-4.4373,-4.4431,-4.4478,-4.4519,-4.453,-4.45,-4.4497,-4.4515,-4.452,-4.4521,-4.452,-4.4292,-4.4491,-4.4489,-4.4488,-4.4487,-4.4487,-4.4206,-4.425,-4.4271,-4.4318,-4.4337,-4.4364,-4.4406,-4.441,-4.4452,-4.4497,-4.4485,-4.4544,-4.4568,-4.4619,-4.4636,-4.4682,-4.4653,-4.4679,-4.4685,-4.4691,-4.4699,-4.4517,-4.469,-4.4689,-4.4689,-4.4689,-4.4688,0,-4.4372,-4.4384,-4.4428,-4.4467,-4.4505,-4.4475,-4.4505,-4.4538,-4.459,-4.4615,-4.4652,-4.4713,-4.4761,-4.4769,-4.4814,-4.485,-4.4838,-4.4863,-4.4858,-4.4862,-4.4722,-4.4702,-4.4872,-4.4872,-4.4872,-4.4872,-4.4872,-4.4872,-4.4462,-4.4537,-4.4534,-4.4619,-4.4631,-4.4688,-4.4708,-4.4733,-4.4753,-4.4822,-4.4861,-4.4867,-4.4885,-4.4933,-4.4976,-4.4977,-4.4995,-4.5025,-4.5021,-4.489,-4.4871,-4.4854,-4.4834,-4.5029,-4.503,-4.5156,-4.5157,-4.5158]},{"header":{"parameterUnit":"m.s-1","parameterCategory":1,"la1":30.2991,"la2":30.254,"lo1":-89.0895,"lo2":-89.0444,"dy":0.0017,"dx":0.0017,"nx":28,"ny":28,"refTime":"2025-03-27T21:00:00:Z","depth":0,"parameterNumber":3,"parameterNumberName":"V-component_of_WINDS"},"data":[0,0,0,0,0,0,0,0,0,0,0,0,0,0,0,0,0,0,0,0,0,0,0,0,0,0,0,0,0,0,0,0,0,0,0,0,0,0,0,0,0,0,0,0,0,0,0,0,0,0,0,0,0,0,0,0,0,0,-0.2456,-0.2456,0,-0.2451,-0.2451,-0.2451,-0.2427,-0.2427,-0.2426,-0.2426,-0.2421,-0.2421,-0.2421,0,0,0,0,0,0,0,0,0,0,0,0,0,-0.2446,-0.2446,-0.2456,-0.2456,-0.2456,-0.2451,-0.2451,-0.2451,-0.2427,-0.2427,-0.2426,-0.2425,-0.2421,-0.2421,-0.2422,0,0,0,0,0,0,0,0,0,0,0,0,0,-0.2446,-0.2446,-0.2456,-0.2444,-0.2443,-0.2451,-0.2451,-0.2451,-0.2428,-0.2427,-0.2426,-0.2425,-0.242,-0.2421,-0.2422,-0.2441,0,0,-0.2423,-0.2424,0,0,0,0,0,0,0,0,-0.2446,-0.2447,-0.2446,-0.2445,-0.2444,-0.2439,-0.2445,-0.2448,-0.2428,-0.2433,-0.2426,-0.2425,-0.2427,-0.2427,-0.2428,-0.2441,-0.2441,-0.2423,-0.2424,-0.2424,-0.2424,0,0,0,0,0,0,0,-0.2446,-0.2447,-0.2454,-0.2446,-0.2444,-0.2438,-0.2437,-0.2446,-0.2435,-0.2433,-0.2431,-0.2431,-0.2427,-0.2428,-0.2428,-0.2441,-0.2423,-0.2424,-0.2424,-0.2424,-0.2468,-0.2468,0,0,0,0,0,0,-0.2448,-0.2447,-0.2454,-0.2454,-0.2443,-0.2439,-0.2438,-0.2441,-0.2435,-0.2433,-0.2431,-0.243,-0.2427,-0.2427,-0.2428,-0.2449,-0.2424,-0.2424,-0.2425,-0.2467,-0.2468,-0.2469,0,0,0,0,0,0,-0.2448,-0.2449,-0.2455,-0.245,-0.245,-0.244,-0.2444,-0.2442,-0.2443,-0.2434,-0.2432,-0.2434,-0.2427,-0.2427,-0.2438,-0.2449,-0.2425,-0.2425,-0.2466,-0.2467,-0.2468,-0.2493,0,0,0,0,0,0,-0.2448,-0.2449,-0.2457,-0.245,-0.2451,-0.2465,-0.2444,-0.2442,-0.2443,-0.2441,-0.2436,-0.2435,-0.2426,-0.2437,-0.2438,-0.2449,-0.2426,-0.2465,-0.2466,-0.2468,-0.2491,-0.2495,-0.2498,0,0,0,0,0,-0.2448,-0.2465,-0.2458,-0.2459,-0.246,-0.2466,-0.2466,-0.2455,-0.2445,-0.2452,-0.2446,-0.2435,-0.2447,-0.2438,-0.2439,-0.2451,-0.2464,-0.2466,-0.2468,-0.249,-0.2494,-0.2498,0,0,0,0,0,0,-0.2474,-0.2464,-0.2456,-0.2472,-0.247,-0.2462,-0.2471,-0.2461,-0.2462,-0.246,-0.2447,-0.2446,-0.2458,-0.2456,-0.2446,-0.2468,-0.2454,-0.2456,-0.247,-0.2474,-0.2478,-0.2478,-0.2426,0,0,0,0,0,-0.2482,-0.2487,-0.2478,-0.2493,-0.2492,-0.2482,-0.2484,-0.2476,-0.2473,-0.2473,-0.2467,-0.2466,-0.2469,-0.2471,-0.2474,-0.249,-0.2488,-0.2499,-0.2502,-0.2505,-0.2507,-0.2514,-0.2518,-0.2475,-0.2474,-0.2474,0,0,-0.2498,-0.2493,-0.2498,-0.2498,-0.2496,-0.2501,-0.2482,-0.2489,-0.2492,-0.2474,-0.2483,-0.2479,-0.2476,-0.2489,-0.2495,-0.2487,-0.2518,-0.2507,-0.251,-0.251,-0.2516,-0.252,-0.2524,-0.2476,-0.2476,-0.2475,0,0,-0.253,-0.2528,-0.2539,-0.2536,-0.2532,-0.2524,-0.2527,-0.252,-0.2517,-0.2526,-0.2511,-0.2515,-0.2521,-0.2519,-0.2519,-0.2547,-0.2536,-0.2548,-0.2567,-0.2574,-0.2577,-0.258,-0.2589,-0.2593,-0.255,-0.255,-0.255,0,-0.2551,-0.2559,-0.2546,-0.2553,-0.2553,-0.2535,-0.2546,-0.2544,-0.2541,-0.2542,-0.2533,-0.2539,-0.2536,-0.2547,-0.2554,-0.2554,-0.2556,-0.2549,-0.2577,-0.258,-0.2583,-0.2591,-0.2595,-0.2552,-0.2552,-0.2551,-0.2551,0,-0.2584,-0.2589,-0.2599,-0.2595,-0.2596,-0.2605,-0.2593,-0.2596,-0.2586,-0.258,-0.2588,-0.2583,-0.2583,-0.2585,-0.2577,-0.2595,-0.259,-0.258,-0.2565,-0.2589,-0.2596,-0.26,-0.2554,-0.2553,-0.2553,-0.2552,0,0,-0.2635,-0.2622,-0.2626,-0.2623,-0.2616,-0.262,-0.2627,-0.2627,-0.2628,-0.2626,-0.2632,-0.2636,-0.2625,-0.2625,-0.2616,-0.2622,-0.2643,-0.261,-0.261,-0.2616,-0.2661,-0.2669,-0.2673,-0.2635,-0.2636,-0.2636,-0.2661,0,-0.2665,-0.2677,-0.2664,-0.2679,-0.2682,-0.2664,-0.267,-0.2666,-0.2659,-0.2661,-0.2653,-0.2656,-0.2643,-0.2642,-0.2647,-0.2639,-0.2652,-0.2637,-0.264,-0.264,-0.2641,-0.2677,-0.2686,-0.271,-0.2664,-0.2665,-0.2665,0,-0.2702,-0.2701,-0.2715,-0.2705,-0.2706,-0.2712,-0.2709,-0.2711,-0.2705,-0.27,-0.2698,-0.2686,-0.2692,-0.2677,-0.2684,-0.2674,-0.2674,-0.267,-0.2671,-0.2671,-0.2654,-0.2678,-0.2717,-0.2721,-0.267,-0.2669,-0.2669,0,-0.2737,-0.2738,-0.2747,-0.2745,-0.2733,-0.2738,-0.2733,-0.2726,-0.2726,-0.2724,-0.2723,-0.2722,-0.2721,-0.272,-0.2708,-0.2698,-0.2716,-0.27,-0.2711,-0.2711,-0.2716,-0.2716,-0.2756,-0.2716,-0.2716,-0.2716,-0.2716,0,-0.2772,-0.2782,-0.2762,-0.2767,-0.2776,-0.2761,-0.277,-0.2764,-0.2757,-0.276,-0.2744,-0.2748,-0.2731,-0.2732,-0.2723,-0.2729,-0.2729,-0.2725,-0.2722,-0.2726,-0.2727,-0.2726,-0.2724,-0.2717,-0.2717,-0.2716,-0.2716,0,-0.2813,-0.28,-0.2808,-0.2795,-0.2792,-0.28,-0.2789,-0.2792,-0.2783,-0.2787,-0.2787,-0.2773,-0.2774,-0.2761,-0.2759,-0.2753,-0.2763,-0.2758,-0.2765,-0.2763,-0.2775,-0.2773,-0.2815,-0.282,-0.2778,-0.2778,-0.2779,0,-0.2836,-0.2843,-0.283,-0.2831,-0.2826,-0.2828,-0.2827,-0.2811,-0.2811,-0.2803,-0.2807,-0.2806,-0.2804,-0.2805,-0.2795,-0.2793,-0.2787,-0.2802,-0.2787,-0.279,-0.2786,-0.2786,-0.2786,-0.2805,-0.2806,-0.2806,-0.2806,0,-0.2879,-0.2871,-0.287,-0.2867,-0.2865,-0.2862,-0.2858,-0.2859,-0.2841,-0.2842,-0.2841,-0.2839,-0.2836,-0.2835,-0.283,-0.2825,-0.2813,-0.2811,-0.2813,-0.2818,-0.2821,-0.2818,-0.2773,-0.281,-0.281,-0.281,-0.2809,-0.2809,-0.2911,-0.2915,-0.2906,-0.2905,-0.2899,-0.2895,-0.2897,-0.2888,-0.2887,-0.2882,-0.2873,-0.2874,-0.2866,-0.2858,-0.2854,-0.2853,-0.2846,-0.285,-0.2851,-0.2852,-0.2853,-0.2821,-0.2853,-0.2853,-0.2852,-0.2852,-0.2852,0,-0.2952,-0.2944,-0.2943,-0.2937,-0.2935,-0.2922,-0.2916,-0.2916,-0.2916,-0.291,-0.2907,-0.2906,-0.2903,-0.2892,-0.2888,-0.289,-0.2884,-0.289,-0.289,-0.2888,-0.2861,-0.2859,-0.2895,-0.2895,-0.2895,-0.2895,-0.2895,-0.2895,-0.2973,-0.2978,-0.297,-0.2972,-0.2964,-0.2964,-0.2961,-0.2956,-0.2951,-0.2949,-0.2947,-0.2939,-0.293,-0.2925,-0.2922,-0.2919,-0.2918,-0.2925,-0.292,-0.2895,-0.2891,-0.2887,-0.2885,-0.2925,-0.2925,-0.2947,-0.2948,-0.2948]}]]